This is the latest recevied weather packets stored in our database for station/object 9W2CHF-3. If no packets are shown the sender has not sent any weather packets the latest 10 day(s).
| Time | Temp. | Humidity | Pressure | Rain* | Wind** | Luminosity | Snow |
|---|---|---|---|---|---|---|---|
| 1778205693 | 30.56° C | 100% | 1011.2 hPa | - | - | - | - |
| 1778204493 | 30° C | 100% | 1011.1 hPa | - | - | - | - |
| 1778203293 | 30° C | 100% | 1010.7 hPa | - | - | - | - |
| 1778202093 | 30° C | 100% | 1010.5 hPa | - | - | - | - |
| 1778200893 | 30° C | 100% | 1010.3 hPa | - | - | - | - |
| 1778199692 | 30.56° C | 98% | 1010 hPa | - | - | - | - |
| 1778198492 | 29.44° C | 100% | 1009.6 hPa | - | - | - | - |
| 1778197292 | 28.89° C | 100% | 1009.2 hPa | - | - | - | - |
| 1778196092 | 28.33° C | 100% | 1009.2 hPa | - | - | - | - |
| 1778194892 | 28.33° C | 100% | 1009.1 hPa | - | - | - | - |
| 1778193692 | 27.78° C | 100% | 1008.8 hPa | - | - | - | - |
| 1778192492 | 28.89° C | 100% | 1008.8 hPa | - | - | - | - |
| 1778191292 | 28.33° C | 100% | 1008.5 hPa | - | - | - | - |
| 1778190092 | 28.33° C | 100% | 1008.4 hPa | - | - | - | - |
| 1778188892 | 28.89° C | 100% | 1008.3 hPa | - | - | - | - |
| 1778187692 | 28.33° C | 100% | 1007.9 hPa | - | - | - | - |
| 1778186492 | 28.89° C | 100% | 1007.9 hPa | - | - | - | - |
| 1778185292 | 28.89° C | 100% | 1008 hPa | - | - | - | - |
| 1778184091 | 29.44° C | 100% | 1008.1 hPa | - | - | - | - |
| 1778182891 | 29.44° C | 100% | 1008.2 hPa | - | - | - | - |
| 1778181690 | 28.89° C | 100% | 1008.5 hPa | - | - | - | - |
| 1778180490 | 28.89° C | 100% | 1008.8 hPa | - | - | - | - |
| 1778179290 | 29.44° C | 100% | 1008.7 hPa | - | - | - | - |
| 1778178090 | 29.44° C | 100% | 1009 hPa | - | - | - | - |
| 1778176889 | 30° C | 95% | 1009.2 hPa | - | - | - | - |
* Rain since midnight (hover to see other rain measurements)
** Current wind speed in m/s (hover to see current wind gust speed)